Auburn, CA

9:45 PM PST on December 10, 2019 (GMT -0800)
Auburn Municipal

Weather History for KAUN - October, 2019

Change the Weather History Date:

Sunday, October 6, 2019

  Actual Average Record
Temperature  
Mean Temperature 66 °F -  
Max Temperature 80 °F 81 °F 95 °F (1952)
Min Temperature 51 °F 55 °F 37 °F (2007)
Growing Degree Days 16 (Base 50)    
Moisture  
Dew Point 42 °F    
Average Humidity 43    
Maximum Humidity 63    
Minimum Humidity 24    
Precipitation  
Precipitation 0.00 in - - ()
Sea Level Pressure  
Sea Level Pressure 30.06 in    
Wind  
Wind Speed 1 mph ()    
Max Wind Speed 8 mph    
Max Gust Speed -    
Visibility 10.0 miles    
Events      
Averages and records for this station are not official NWS values.
T = Trace of Precipitation, MM = Missing Value Source: Averaged Metar Reports

Daily Weather History Graph

Daily Weather History Graph

Search for Another Location

Airport or City:

Astronomy

Oct. 06, 2019 Rise Set
Actual Time 7:04 AM PDT 6:39 PM PDT
Civil Twilight 6:38 AM PDT 7:05 PM PDT
Nautical Twilight 6:07 AM PDT 7:36 PM PDT
Astronomical Twilight 5:36 AM PDT 8:07 PM PDT
Moon 3:18 PM PDT (10/6) 12:11 AM PDT (10/6)
Length of Visible Light 12h 27m
Length of Day
11h 34m
First Quarter, 61% of the Moon is Illuminated
Oct 6
First Quarter
Oct 13
Full
Oct 21
Last Quarter
Oct 27
New
Nov 4
First Quarter

Hourly Weather History & Observations

Time (PDT) Temp. Dew Point Humidity Pressure Visibility Wind Dir Wind Speed Gust Speed Precip Events Conditions
12:15 AM 59.0 °F 42.8 °F 55% 30.05 in 10.0 mi Calm Calm - N/A   Clear
12:35 AM 60.8 °F 41.0 °F 48% 30.05 in 10.0 mi Calm Calm - N/A   Clear
12:55 AM 60.8 °F 41.0 °F 48% 30.05 in 10.0 mi Calm Calm - N/A   Clear
1:15 AM 59.0 °F 41.0 °F 51% 30.04 in 10.0 mi Calm Calm - N/A   Clear
1:35 AM 59.0 °F 41.0 °F 51% 30.04 in 10.0 mi East 6.9 mph - N/A   Clear
1:55 AM 59.0 °F 41.0 °F 51% 30.05 in 10.0 mi East 8.1 mph - N/A   Clear
2:15 AM 60.8 °F 41.0 °F 48% 30.05 in 10.0 mi East 8.1 mph - N/A   Clear
2:35 AM 59.0 °F 41.0 °F 51% 30.05 in 10.0 mi Calm Calm - N/A   Clear
2:55 AM 59.0 °F 41.0 °F 51% 30.05 in 10.0 mi Calm Calm - N/A   Clear
3:15 AM 59.0 °F 41.0 °F 51% 30.04 in 10.0 mi Calm Calm - N/A   Clear
3:35 AM 59.0 °F 39.2 °F 48% 30.04 in 10.0 mi Calm Calm - N/A   Clear
3:55 AM 59.0 °F 39.2 °F 48% 30.04 in 10.0 mi Calm Calm - N/A   Clear
4:15 AM 59.0 °F 39.2 °F 48% 30.04 in 10.0 mi Calm Calm - N/A   Clear
4:35 AM 55.4 °F 39.2 °F 54% 30.04 in 10.0 mi Calm Calm - N/A   Clear
4:55 AM 55.4 °F 39.2 °F 54% 30.04 in 10.0 mi Calm Calm - N/A   Clear
5:15 AM 57.2 °F 37.4 °F 48% 30.05 in 10.0 mi Calm Calm - N/A   Clear
5:35 AM 57.2 °F 37.4 °F 48% 30.05 in 10.0 mi Calm Calm - N/A   Clear
5:55 AM 55.4 °F 39.2 °F 54% 30.05 in 10.0 mi Calm Calm - N/A   Clear
6:15 AM 53.6 °F 39.2 °F 58% 30.05 in 10.0 mi Calm Calm - N/A   Clear
6:35 AM 53.6 °F 39.2 °F 58% 30.05 in 10.0 mi Calm Calm - N/A   Clear
6:55 AM 53.6 °F 39.2 °F 58% 30.06 in 10.0 mi Calm Calm - N/A   Clear
7:15 AM 51.8 °F 39.2 °F 62% 30.06 in 10.0 mi Calm Calm - N/A   Clear
7:35 AM 53.6 °F 39.2 °F 58% 30.07 in 10.0 mi Calm Calm - N/A   Clear
7:55 AM 55.4 °F 41.0 °F 58% 30.08 in 10.0 mi Calm Calm - N/A   Clear
8:15 AM 59.0 °F 41.0 °F 51% 30.08 in 10.0 mi Calm Calm - N/A   Clear
8:35 AM 62.6 °F 39.2 °F 42% 30.09 in 10.0 mi Calm Calm - N/A   Clear
8:55 AM 66.2 °F 37.4 °F 35% 30.09 in 10.0 mi Calm Calm - N/A   Clear
9:15 AM 66.2 °F 39.2 °F 37% 30.10 in 10.0 mi Calm Calm - N/A   Clear
9:35 AM 68.0 °F 39.2 °F 35% 30.11 in 10.0 mi Calm Calm - N/A   Clear
9:55 AM 68.0 °F 37.4 °F 33% 30.11 in 10.0 mi Calm Calm - N/A   Clear
10:15 AM 69.8 °F 39.2 °F 33% 30.12 in 10.0 mi Calm Calm - N/A   Clear
10:35 AM 71.6 °F 39.2 °F 31% 30.11 in 10.0 mi Calm Calm - N/A   Clear
10:55 AM 73.4 °F 41.0 °F 31% 30.11 in 10.0 mi Calm Calm - N/A   Clear
11:15 AM 73.4 °F 39.2 °F 29% 30.11 in 10.0 mi Calm Calm - N/A   Clear
11:35 AM 75.2 °F 39.2 °F 27% 30.11 in 10.0 mi Calm Calm - N/A   Clear
11:55 AM 75.2 °F 41.0 °F 29% 30.11 in 10.0 mi Calm Calm - N/A   Clear
12:15 PM 77.0 °F 41.0 °F 28% 30.11 in 10.0 mi Calm Calm - N/A   Clear
12:35 PM 77.0 °F 41.0 °F 28% 30.10 in 10.0 mi Calm Calm - N/A   Clear
12:55 PM 77.0 °F 44.6 °F 32% 30.10 in 10.0 mi West 5.8 mph - N/A   Clear
1:15 PM 77.0 °F 44.6 °F 32% 30.09 in 10.0 mi Calm Calm - N/A   Clear
1:35 PM 77.0 °F 44.6 °F 32% 30.09 in 10.0 mi Calm Calm - N/A   Clear
1:55 PM 78.8 °F 42.8 °F 28% 30.08 in 10.0 mi Calm Calm - N/A   Clear
2:15 PM 78.8 °F 42.8 °F 28% 30.08 in 10.0 mi Calm Calm - N/A   Clear
2:35 PM 78.8 °F 42.8 °F 28% 30.07 in 10.0 mi Calm Calm - N/A   Clear
2:55 PM 80.6 °F 41.0 °F 24% 30.06 in 10.0 mi Calm Calm - N/A   Clear
3:15 PM 80.6 °F 41.0 °F 24% 30.06 in 10.0 mi Calm Calm - N/A   Clear
3:35 PM 80.6 °F 41.0 °F 24% 30.05 in 10.0 mi Calm Calm - N/A   Clear
3:55 PM 80.6 °F 41.0 °F 24% 30.05 in 10.0 mi Calm Calm - N/A   Clear
4:15 PM 80.6 °F 41.0 °F 24% 30.04 in 10.0 mi Calm Calm - N/A   Clear
4:35 PM 80.6 °F 42.8 °F 26% 30.04 in 10.0 mi West 5.8 mph - N/A   Clear
4:55 PM 80.6 °F 42.8 °F 26% 30.04 in 10.0 mi Calm Calm - N/A   Clear
5:15 PM 78.8 °F 42.8 °F 28% 30.04 in 10.0 mi Calm Calm - N/A   Clear
5:35 PM 78.8 °F 42.8 °F 28% 30.03 in 10.0 mi Calm Calm - N/A   Clear
5:55 PM 77.0 °F 42.8 °F 29% 30.03 in 10.0 mi Calm Calm - N/A   Clear
6:15 PM 75.2 °F 42.8 °F 31% 30.03 in 10.0 mi Calm Calm - N/A   Clear
6:35 PM 69.8 °F 44.6 °F 40% 30.03 in 10.0 mi Calm Calm - N/A   Clear
6:55 PM 66.2 °F 44.6 °F 46% 30.02 in 10.0 mi Calm Calm - N/A   Clear
7:15 PM 64.4 °F 46.4 °F 52% 30.03 in 10.0 mi Calm Calm - N/A   Clear
7:35 PM 60.8 °F 46.4 °F 59% 30.03 in 10.0 mi Calm Calm - N/A   Clear
7:55 PM 60.8 °F 46.4 °F 59% 30.04 in 10.0 mi Calm Calm - N/A   Clear
8:15 PM 60.8 °F 46.4 °F 59% 30.04 in 10.0 mi Calm Calm - N/A   Clear
8:35 PM 62.6 °F 46.4 °F 55% 30.04 in 10.0 mi Calm Calm - N/A   Clear
8:55 PM 59.0 °F 46.4 °F 63% 30.05 in 10.0 mi Calm Calm - N/A   Clear
9:15 PM 62.6 °F 46.4 °F 55% 30.05 in 10.0 mi Calm Calm - N/A   Clear
9:35 PM 66.2 °F 46.4 °F 49% 30.05 in 10.0 mi Calm Calm - N/A   Clear
9:55 PM 66.2 °F 46.4 °F 49% 30.05 in 10.0 mi Calm Calm - N/A   Clear
10:15 PM 66.2 °F 46.4 °F 49% 30.05 in 10.0 mi Calm Calm - N/A   Clear
10:35 PM 64.4 °F 46.4 °F 52% 30.05 in 10.0 mi Calm Calm - N/A   Clear
10:55 PM 66.2 °F 46.4 °F 49% 30.05 in 10.0 mi Calm Calm - N/A   Clear
11:15 PM 64.4 °F 46.4 °F 52% 30.04 in 10.0 mi Calm Calm - N/A   Clear
11:35 PM 64.4 °F 44.6 °F 49% 30.05 in 10.0 mi Calm Calm - N/A   Clear
11:55 PM 64.4 °F 44.6 °F 49% 30.05 in 10.0 mi Calm Calm - N/A   Clear